KI4MRC-13 Weather Reports


time (UTC)temp
C
wind
direction
speed
KPH
gust
KPH
rain 1hr
cm
rain 24hr
cm
rain mn
cm
humidity
%
barometer
mb
20260904183955 37 221 3.2 4.8 0.00 0.00 0.00 58 1015.4
20260904183450 36 0 1.6 9.7 0.00 0.00 0.00 61 1015.3
20260904182946 37 99 4.8 4.8 0.00 0.00 0.00 61 1015.3
20260904182442 37 130 3.2 3.2 0.00 0.00 0.00 64 1015.2
20260904181941 37 22 3.2 4.8 0.00 0.00 0.00 61 1015.3
20260904181437 36 122 3.2 6.4 0.00 0.00 0.00 64 1015.1
20260904180931 36 353 3.2 8.0 0.00 0.00 0.00 63 1015.3
20260904180427 36 102 0.0 4.8 0.00 0.00 0.00 62 1015.3
20260904175927 36 339 1.6 4.8 0.00 0.00 0.00 62 1015.5
20260904175426 36 333 0.0 3.2 0.00 0.00 0.00 63 1015.7
20260904174926 36 133 3.2 3.2 0.00 0.00 0.00 66 1015.8
20260904174421 35 85 3.2 6.4 0.00 0.00 0.00 66 1015.6
20260904173917 35 19 3.2 4.8 0.00 0.00 0.00 65 1015.7
20260904173412 36 297 1.6 6.4 0.00 0.00 0.00 63 1015.8
20260904172908 36 148 4.8 9.7 0.00 0.00 0.00 66 1015.8
20260904172408 36 126 1.6 4.8 0.00 0.00 0.00 63 1016.0
20260904171903 36 110 3.2 4.8 0.00 0.00 0.00 65 1015.8
20260904171358 35 37 1.6 4.8 0.00 0.00 0.00 67 1015.9
20260904170854 35 312 3.2 4.8 0.00 0.00 0.00 66 1016.0
20260904170349 35 275 0.0 3.2 0.00 0.00 0.00 68 1016.3
20260904165844 35 345 1.6 3.2 0.00 0.00 0.00 67 1016.2
20260904165343 35 52 3.2 4.8 0.00 0.00 0.00 67 1016.2
20260904164839 35 41 0.0 3.2 0.00 0.00 0.00 67 1016.3
20260904164338 36 11 0.0 4.8 0.00 0.00 0.00 63 1016.5
20260904163835 35 61 1.6 6.4 0.00 0.00 0.00 66 1016.5
20260904163334 35 118 3.2 4.8 0.00 0.00 0.00 69 1016.4
20260904162834 34 33 1.6 3.2 0.00 0.00 0.00 71 1016.4
20260904162329 34 25 3.2 3.2 0.00 0.00 0.00 69 1016.3
20260904161825 34 347 3.2 3.2 0.00 0.00 0.00 70 1016.4
20260904161325 35 26 1.6 4.8 0.00 0.00 0.00 68 1016.6
20260904160820 35 76 3.2 3.2 0.00 0.00 0.00 69 1016.6
20260904160320 36 123 0.0 4.8 0.00 0.00 0.00 65 1016.6
20260904155815 36 93 0.0 3.2 0.00 0.00 0.00 67 1016.6
20260904155310 36 61 1.6 4.8 0.00 0.00 0.00 66 1016.6
20260904154809 36 60 0.0 8.0 0.00 0.00 0.00 66 1016.4
20260904154303 36 97 0.0 3.2 0.00 0.00 0.00 68 1016.4
20260904153759 35 129 3.2 4.8 0.00 0.00 0.00 71 1016.5
20260904153254 35 136 3.2 4.8 0.00 0.00 0.00 71 1016.4
20260904152751 35 73 3.2 6.4 0.00 0.00 0.00 73 1016.4
20260904152245 34 135 1.6 3.2 0.00 0.00 0.00 76 1016.7
20260904151740 33 73 0.0 6.4 0.00 0.00 0.00 78 1016.6
20260904151239 32 75 3.2 3.2 0.00 0.00 0.00 81 1016.6
20260904150736 33 114 1.6 4.8 0.00 0.00 0.00 79 1016.6
20260904150230 33 109 3.2 4.8 0.00 0.00 0.00 79 1016.6
20260904145729 32 133 3.2 3.2 0.00 0.00 0.00 83 1016.7
20260904145224 32 81 3.2 4.8 0.00 0.00 0.00 84 1016.5
20260904144719 32 89 0.0 3.2 0.00 0.00 0.00 83 1016.4
20260904144215 32 87 1.6 3.2 0.00 0.00 0.00 83 1016.2
20260904143710 32 109 1.6 1.6 0.00 0.00 0.00 82 1016.3
20260904143207 32 55 3.2 3.2 0.00 0.00 0.00 81 1016.3
20260904142704 32 15 0.0 1.6 0.00 0.00 0.00 78 1016.5
20260904142159 32 77 1.6 3.2 0.00 0.00 0.00 83 1016.3
20260904141653 31 84 1.6 3.2 0.00 0.00 0.00 86 1016.1
20260904141149 31 37 0.0 3.2 0.00 0.00 0.00 86 1016.2
20260904140645 31 44 3.2 3.2 0.00 0.00 0.00 87 1016.1
20260904140145 31 80 1.6 1.6 0.00 0.00 0.00 87 1016.1
20260904135644 31 52 3.2 3.2 0.00 0.00 0.00 85 1016.0
20260904135140 31 58 3.2 3.2 0.00 0.00 0.00 84 1016.0
20260904134635 32 72 3.2 3.2 0.00 0.00 0.00 83 1016.1
20260904134134 32 36 0.0 1.6 0.00 0.00 0.00 82 1016.1
20260904133630 33 257 0.0 6.4 0.00 0.00 0.00 82 1016.0
20260904133125 32 119 0.0 4.8 0.00 0.00 0.00 82 1016.0
20260904132620 33 65 3.2 3.2 0.00 0.00 0.00 81 1015.9
20260904132115 33 33 1.6 6.4 0.00 0.00 0.00 81 1015.8
20260904131615 33 61 1.6 3.2 0.00 0.00 0.00 80 1015.7
20260904131111 33 22 0.0 6.4 0.00 0.00 0.00 81 1015.7
20260904130610 32 141 0.0 3.2 0.00 0.00 0.00 83 1015.8
20260904130110 33 79 3.2 4.8 0.00 0.00 0.00 79 1015.6
20260904125607 32 72 3.2 3.2 0.00 0.00 0.00 84 1015.8
20260904125107 32 69 3.2 3.2 0.00 0.00 0.00 88 1015.7
20260904124602 31 47 4.8 4.8 0.00 0.00 0.00 98 1015.5
20260904124058 30 45 3.2 4.8 0.00 0.00 0.00 99 1015.6
20260904123557 28 104 0.0 4.8 0.00 0.00 0.00 99 1015.5
20260904123054 28 95 1.6 3.2 0.00 0.00 0.00 99 1015.5
20260904122554 28 116 0.0 3.2 0.00 0.00 0.00 99 1015.5
20260904122049 28 73 3.2 3.2 0.00 0.00 0.00 99 1015.7
20260904121544 28 84 0.0 3.2 0.00 0.00 0.00 99 1015.6
20260904121040 27 71 1.6 3.2 0.00 0.00 0.00 99 1015.5
20260904120536 27 41 0.0 3.2 0.00 0.00 0.00 99 1015.3
20260904120031 27 77 0.0 3.2 0.00 0.00 0.00 99 1015.4
20260904115527 27 65 3.2 3.2 0.00 0.00 0.00 99 1015.4
20260904115026 27 58 1.6 3.2 0.00 0.00 0.00 99 1015.2
20260904114522 27 79 1.6 3.2 0.00 0.00 0.00 99 1015.0
20260904114021 27 76 1.6 3.2 0.00 0.00 0.00 99 1015.1
20260904113516 27 75 3.2 3.2 0.00 0.00 0.00 99 1015.0
20260904113015 27 69 3.2 3.2 0.00 0.00 0.00 99 1015.1
20260904112511 27 88 3.2 3.2 0.00 0.00 0.00 99 1015.0
20260904112007 27 76 1.6 3.2 0.00 0.00 0.00 99 1015.1
20260904111503 27 100 1.6 3.2 0.00 0.00 0.00 99 1015.2
20260904110958 27 68 1.6 3.2 0.00 0.00 0.00 99 1015.2
20260904110457 27 71 1.6 3.2 0.00 0.00 0.00 99 1015.0
20260904105952 27 79 0.0 3.2 0.00 0.00 0.00 99 1014.8
20260904105452 27 64 3.2 3.2 0.00 0.00 0.00 99 1014.7
20260904104947 27 72 3.2 3.2 0.00 0.00 0.00 99 1014.6
20260904104442 27 89 1.6 3.2 0.00 0.00 0.00 99 1014.5
20260904103939 27 64 1.6 3.2 0.00 0.00 0.00 99 1014.6
20260904103434 27 72 3.2 3.2 0.00 0.00 0.00 99 1014.4
20260904102930 27 57 0.0 3.2 0.00 0.00 0.00 99 1014.5
20260904102425 27 80 1.6 3.2 0.00 0.00 0.00 99 1014.5
20260904101921 27 79 0.0 3.2 0.00 0.00 0.00 99 1014.4
20260904101418 27 86 1.6 3.2 0.00 0.00 0.00 99 1014.3
20260904100913 27 71 0.0 3.2 0.00 0.00 0.00 99 1014.6
20260904100409 27 69 1.6 3.2 0.00 0.00 0.00 99 1014.4
20260904095908 27 66 1.6 3.2 0.00 0.00 0.00 99 1014.3
20260904095403 27 60 1.6 3.2 0.00 0.00 0.00 99 1014.1
20260904094858 27 70 0.0 3.2 0.00 0.00 0.00 99 1014.0
20260904094354 27 73 1.6 3.2 0.00 0.00 0.00 99 1014.1
20260904093850 27 80 1.6 3.2 0.00 0.00 0.00 99 1014.0
20260904093349 27 83 1.6 3.2 0.00 0.00 0.00 99 1014.0
20260904092845 27 65 3.2 3.2 0.00 0.00 0.00 99 1014.0
20260904092342 27 93 3.2 3.2 0.00 0.00 0.00 99 1014.0
20260904091837 27 79 3.2 3.2 0.00 0.00 0.00 99 1014.1
20260904091333 27 77 1.6 3.2 0.00 0.00 0.00 99 1014.1
20260904090827 27 71 1.6 3.2 0.00 0.00 0.00 99 1013.9
20260904090324 27 68 3.2 3.2 0.00 0.00 0.00 99 1013.9
20260904085818 27 74 1.6 3.2 0.00 0.00 0.00 99 1014.0
20260904085314 27 78 3.2 3.2 0.00 0.00 0.00 99 1013.8
20260904084808 27 75 3.2 3.2 0.00 0.00 0.00 99 1013.8
20260904084304 27 89 1.6 3.2 0.00 0.00 0.00 99 1013.8
20260904083800 27 67 0.0 3.2 0.00 0.00 0.00 99 1013.9
20260904083257 27 70 0.0 3.2 0.00 0.00 0.00 99 1013.7
20260904082757 27 74 1.6 3.2 0.00 0.00 0.00 99 1013.6
20260904082251 27 83 3.2 4.8 0.00 0.00 0.00 99 1013.9
20260904081747 27 61 1.6 3.2 0.00 0.00 0.00 99 1013.5
20260904081242 27 98 1.6 3.2 0.00 0.00 0.00 99 1013.6
20260904080737 27 65 1.6 3.2 0.00 0.00 0.00 99 1013.7
20260904080228 27 66 1.6 4.8 0.00 0.00 0.00 99 1013.8
20260904075724 27 82 3.2 3.2 0.00 0.00 0.00 99 1013.7
20260904075219 27 120 1.6 3.2 0.00 0.00 0.00 99 1013.7
20260904074718 27 94 1.6 3.2 0.00 0.00 0.00 99 1013.6
20260904074212 27 48 1.6 3.2 0.00 0.00 0.00 99 1013.7
20260904073708 27 72 1.6 3.2 0.00 0.00 0.00 99 1013.6
20260904073204 27 69 1.6 3.2 0.00 0.00 0.00 99 1013.6
20260904072700 27 94 0.0 3.2 0.00 0.00 0.00 99 1013.7
20260904072154 27 83 1.6 3.2 0.00 0.00 0.00 99 1013.7
20260904071650 27 61 3.2 3.2 0.00 0.00 0.00 99 1013.8
20260904071145 27 74 1.6 3.2 0.00 0.00 0.00 99 1013.7
20260904070644 27 84 0.0 3.2 0.00 0.00 0.00 99 1013.8
20260904070144 27 73 3.2 3.2 0.00 0.00 0.00 99 1014.1
20260904065644 27 82 1.6 3.2 0.00 0.00 0.00 99 1013.8
20260904065142 27 75 1.6 3.2 0.00 0.00 0.00 99 1013.8
20260904064636 27 71 3.2 3.2 0.00 0.00 0.00 98 1014.0
20260904064136 27 80 1.6 3.2 0.00 0.00 0.00 98 1014.0
20260904063632 27 68 1.6 3.2 0.00 0.00 0.00 98 1013.9
20260904063128 27 73 1.6 3.2 0.00 0.00 0.00 98 1014.1
20260904062624 27 91 3.2 3.2 0.00 0.00 0.00 98 1013.9
20260904062119 27 77 1.6 3.2 0.00 0.00 0.00 98 1014.0
20260904061615 27 78 1.6 3.2 0.00 0.00 0.00 98 1014.0
20260904061111 27 75 1.6 3.2 0.00 0.00 0.00 98 1014.2
20260904060607 27 79 1.6 3.2 0.00 0.00 0.00 98 1014.1
20260904060103 27 64 1.6 3.2 0.00 0.00 0.00 98 1014.2
20260904055557 27 70 0.0 3.2 0.00 0.00 0.00 98 1014.2
20260904055053 27 70 3.2 3.2 0.00 0.00 0.00 98 1014.2
20260904054549 27 75 1.6 3.2 0.00 0.00 0.00 98 1014.2
20260904054044 27 69 3.2 3.2 0.00 0.00 0.00 98 1014.3
20260904053544 27 58 3.2 3.2 0.00 0.00 0.00 98 1014.3
20260904053039 27 69 0.0 3.2 0.00 0.00 0.00 98 1014.4
20260904052536 27 113 0.0 3.2 0.00 0.00 0.00 98 1014.5
20260904052031 27 83 3.2 3.2 0.00 0.00 0.00 98 1014.4
20260904051528 27 82 1.6 3.2 0.00 0.00 0.00 98 1014.4
20260904051026 27 55 1.6 3.2 0.00 0.00 0.00 98 1014.4
20260904050523 27 80 1.6 3.2 0.00 0.00 0.00 98 1014.6
20260904050019 27 82 1.6 3.2 0.00 0.00 0.00 98 1014.6
20260904045514 27 76 1.6 3.2 0.00 0.00 0.00 98 1014.6
20260904045008 28 87 1.6 3.2 0.00 0.00 0.00 98 1014.4
20260904044504 28 97 0.0 3.2 0.00 0.00 0.00 98 1014.5
20260904044000 28 94 1.6 3.2 0.00 0.00 0.00 98 1014.6
20260904043457 28 79 3.2 3.2 0.00 0.00 0.00 98 1014.7
20260904042951 28 77 3.2 4.8 0.00 0.00 0.00 97 1014.6
20260904042448 28 84 1.6 3.2 0.00 0.00 0.00 97 1014.8
20260904041942 27 89 1.6 3.2 0.00 0.00 0.00 97 1014.8
20260904041439 28 80 1.6 3.2 0.00 0.00 0.00 97 1014.9
20260904040935 28 69 1.6 3.2 0.00 0.00 0.00 97 1015.0
20260904040435 28 65 3.2 3.2 0.00 0.00 0.00 97 1014.9
20260904035931 28 79 0.0 3.2 0.00 0.05 0.05 97 1015.0
20260904035427 28 76 3.2 3.2 0.00 0.05 0.05 97 1014.8
20260904034926 28 78 3.2 3.2 0.00 0.05 0.05 97 1014.8
20260904034421 28 85 1.6 3.2 0.00 0.05 0.05 97 1014.9
20260904033917 28 71 3.2 3.2 0.00 0.05 0.05 96 1014.8
20260904033413 28 72 3.2 3.2 0.00 0.05 0.05 96 1014.9
20260904032909 28 91 1.6 3.2 0.00 0.05 0.05 96 1015.1
20260904032404 28 120 1.6 3.2 0.00 0.05 0.05 96 1015.0
20260904031858 28 101 3.2 3.2 0.00 0.05 0.05 96 1014.9
20260904031353 28 98 0.0 3.2 0.00 0.05 0.05 96 1014.9
20260904030849 28 101 1.6 3.2 0.00 0.05 0.05 95 1014.8
20260904030345 28 116 1.6 3.2 0.00 0.05 0.05 95 1015.1
20260904025840 28 109 0.0 3.2 0.00 0.05 0.05 95 1015.1
20260904025336 28 93 1.6 3.2 0.00 0.05 0.05 95 1015.2
20260904024836 28 94 1.6 3.2 0.00 0.05 0.05 94 1014.9
20260904024331 28 134 3.2 3.2 0.00 0.05 0.05 94 1015.1
20260904023827 28 67 1.6 3.2 0.00 0.05 0.05 94 1015.0
20260904023323 28 70 3.2 3.2 0.00 0.05 0.05 93 1015.1
20260904022822 28 105 1.6 3.2 0.00 0.05 0.05 93 1015.1
20260904022319 28 110 1.6 3.2 0.00 0.05 0.05 93 1015.1
20260904021816 28 92 1.6 1.6 0.00 0.05 0.05 93 1014.9
20260904021315 28 68 1.6 3.2 0.00 0.05 0.05 92 1015.2
20260904020811 28 84 1.6 3.2 0.00 0.05 0.05 91 1015.0
20260904020306 29 70 1.6 3.2 0.00 0.05 0.05 91 1014.9
20260904015804 29 48 0.0 3.2 0.00 0.05 0.05 90 1014.9
20260904015300 29 79 1.6 3.2 0.00 0.05 0.05 90 1014.8
20260904014758 29 82 1.6 1.6 0.00 0.05 0.05 89 1014.9
20260904014254 29 103 0.0 1.6 0.00 0.05 0.05 89 1014.8
20260904013749 29 63 1.6 1.6 0.00 0.05 0.05 89 1014.8
20260904013245 29 63 1.6 3.2 0.00 0.05 0.05 89 1014.7
20260904012741 29 145 0.0 1.6 0.00 0.05 0.05 88 1014.7
20260904012241 29 55 1.6 3.2 0.00 0.05 0.05 87 1014.6
20260904011740 29 70 1.6 1.6 0.00 0.05 0.05 87 1014.6
20260904011235 29 81 1.6 1.6 0.00 0.05 0.05 87 1014.6
20260904010730 29 66 0.0 1.6 0.00 0.05 0.05 87 1014.4
20260904010227 30 89 0.0 1.6 0.00 0.05 0.05 87 1014.3
20260904005722 29 116 0.0 1.6 0.00 0.05 0.05 87 1014.4
20260904005218 29 86 1.6 1.6 0.00 0.05 0.05 88 1014.4
20260904004718 29 73 1.6 3.2 0.00 0.05 0.05 89 1014.2
20260904004213 29 52 1.6 1.6 0.00 0.05 0.05 88 1014.2
20260904003708 29 69 0.0 1.6 0.00 0.05 0.05 89 1014.3
20260904003204 29 71 1.6 1.6 0.00 0.05 0.05 89 1014.1
20260904002700 29 67 1.6 1.6 0.00 0.05 0.05 90 1014.2
20260904002156 29 86 1.6 1.6 0.00 0.05 0.05 90 1013.9
20260904001650 29 127 1.6 3.2 0.00 0.05 0.05 90 1014.2
20260904001150 29 113 0.0 3.2 0.00 0.05 0.05 90 1014.2
20260904000645 29 123 3.2 3.2 0.00 0.05 0.05 89 1014.1
20260904000140 29 123 3.2 3.2 0.00 0.05 0.05 89 1014.1
20260903235639 30 103 0.0 1.6 0.00 0.05 0.05 88 1014.1
20260903235136 30 53 0.0 3.2 0.00 0.05 0.05 88 1014.0
20260903234630 30 45 3.2 3.2 0.00 0.05 0.05 87 1014.0
20260903234126 30 93 1.6 1.6 0.00 0.05 0.05 88 1013.9
20260903233622 30 68 1.6 3.2 0.00 0.05 0.05 88 1013.9
20260903233118 30 53 0.0 1.6 0.00 0.05 0.05 87 1014.0
20260903232612 30 59 1.6 1.6 0.00 0.05 0.05 87 1013.9
20260903232108 30 115 1.6 3.2 0.00 0.05 0.05 86 1013.8
20260903231602 30 127 1.6 1.6 0.00 0.05 0.05 85 1013.7
20260903231102 30 113 0.0 1.6 0.00 0.05 0.05 85 1013.7
20260903230559 30 65 1.6 3.2 0.00 0.05 0.05 85 1013.7
20260903230057 31 49 1.6 3.2 0.00 0.05 0.05 84 1013.7
20260903225554 31 77 1.6 3.2 0.00 0.05 0.05 83 1013.9
20260903225051 31 63 0.0 1.6 0.00 0.05 0.05 82 1014.0
20260903224547 31 75 0.0 1.6 0.00 0.05 0.05 81 1014.0
20260903224043 31 62 0.0 1.6 0.00 0.05 0.05 81 1014.1
20260903223542 31 69 0.0 1.6 0.00 0.05 0.05 80 1014.0
20260903223041 31 35 1.6 3.2 0.00 0.05 0.05 80 1013.8
20260903222537 31 55 1.6 1.6 0.00 0.05 0.05 80 1013.7
20260903222035 31 104 0.0 1.6 0.00 0.05 0.05 80 1013.8
20260903221531 31 69 0.0 1.6 0.00 0.05 0.05 78 1013.6
20260903221028 31 46 3.2 3.2 0.00 0.05 0.05 79 1013.7
20260903220527 31 72 0.0 1.6 0.00 0.05 0.05 78 1013.5
20260903220022 31 126 0.0 1.6 0.00 0.05 0.05 79 1013.6
20260903215521 31 73 0.0 3.2 0.00 0.05 0.05 79 1013.4
20260903215022 31 39 3.2 4.8 0.00 0.05 0.05 77 1013.2
20260903214521 31 52 1.6 3.2 0.00 0.05 0.05 78 1013.4
20260903214021 32 41 3.2 3.2 0.00 0.05 0.05 77 1013.4
20260903213517 32 20 1.6 3.2 0.00 0.05 0.05 78 1013.0
20260903213012 31 53 3.2 3.2 0.00 0.05 0.05 79 1012.9
20260903212509 32 32 3.2 4.8 0.00 0.05 0.05 79 1012.9
20260903212009 32 104 0.0 1.6 0.00 0.05 0.05 79 1012.9
20260903211504 32 38 1.6 3.2 0.00 0.05 0.05 77 1012.8
20260903211001 32 18 1.6 4.8 0.00 0.05 0.05 76 1013.0
20260903210500 33 322 0.0 3.2 0.00 0.05 0.05 76 1013.0
20260903205955 33 1 1.6 4.8 0.00 0.05 0.05 75 1013.0
20260903205450 33 16 0.0 4.8 0.00 0.05 0.05 73 1013.1
20260903204944 33 196 0.0 3.2 0.00 0.05 0.05 72 1013.2
20260903204441 34 19 0.0 3.2 0.00 0.05 0.05 68 1013.4
20260903203936 34 30 3.2 4.8 0.00 0.05 0.05 67 1013.3
20260903203431 34 41 3.2 4.8 0.00 0.05 0.05 67 1012.8
20260903202931 34 160 1.6 3.2 0.00 0.05 0.05 69 1012.7
20260903202427 35 84 3.2 4.8 0.00 0.05 0.05 66 1012.8
20260903201926 34 61 3.2 8.0 0.00 0.05 0.05 67 1012.9
20260903201422 34 122 3.2 3.2 0.00 0.05 0.05 70 1012.7
20260903200921 35 116 4.8 6.4 0.00 0.05 0.05 66 1012.8
20260903200416 35 3 3.2 6.4 0.00 0.05 0.05 67 1013.2
20260903195911 35 49 0.0 8.0 0.00 0.05 0.05 67 1013.2
20260903195409 35 32 3.2 4.8 0.00 0.05 0.05 69 1012.9
20260903194908 35 140 0.0 4.8 0.00 0.05 0.05 68 1012.9
20260903194403 35 93 1.6 4.8 0.00 0.05 0.05 70 1012.9
20260903193858 35 74 3.2 8.0 0.00 0.05 0.05 68 1013.1
20260903193355 35 102 8.0 8.0 0.00 0.05 0.05 69 1013.1
20260903192850 34 54 3.2 3.2 0.00 0.05 0.05 77 1013.2
20260903192346 33 76 4.8 8.0 0.00 0.05 0.05 72 1013.5
20260903191842 33 102 1.6 4.8 0.00 0.05 0.05 74 1013.3
20260903191338 33 255 0.0 6.4 0.00 0.05 0.05 74 1013.1
20260903190837 34 41 1.6 6.4 0.00 0.05 0.05 71 1013.0
20260903190332 35 99 8.0 8.0 0.00 0.05 0.05 70 1013.0
20260903185831 35 143 4.8 6.4 0.00 0.05 0.05 67 1013.1
20260903185326 35 112 1.6 8.0 0.00 0.05 0.05 65 1013.2
20260903184823 37 130 1.6 6.4 0.00 0.05 0.05 63 1013.1
20260903184319 37 27 6.4 6.4 0.00 0.05 0.05 60 1013.3